Regional Weather Roundup
Issued by NWS

Home | Current Version | Previous Version | Text Only | Print | Product List | Glossary On
Versions: 1 2 3 4 5 6 7 8 9 10 11 12 13 14 15 16 17 18 19 20 21 22 23 24 25 26 27 28 29 30 31 32 33 34 35 36 37 38 39 40 41 42 43 44 45 46 47 48 49 50
000
ASUS44 KFWD 160703
RWRTX
NORTH TEXAS HOURLY WEATHER ROUNDUP
NATIONAL WEATHER SERVICE FORT WORTH TX
100 AM CST SAT DEC 16 2017

NOTE: "FAIR" INDICATES FEW OR NO CLOUDS BELOW 12,000 FEET WITH NO
SIGNIFICANT WEATHER AND/OR OBSTRUCTIONS TO VISIBILITY.

TXZ118-119-160800-
DALLAS/FORT WORTH METROPLEX

CITY           SKY/WX    TMP DP  RH WIND       PRES   REMARKS
DFW AIRPORT    CLOUDY    39  27  62 S9        30.15F WCI  33
DALLAS LOVE    CLOUDY    44  26  49 S3        30.18F
FTW MEACHAM    CLOUDY    41  25  53 S3        30.16F
DAL-EXECUTIVE  CLOUDY    43  25  49 S6        30.16F WCI  39
FTW-ALLIANCE   CLOUDY    41  25  53 SW6       30.16F WCI  37
FTW-NAS-JRB    CLOUDY    40  24  53 S8        30.17F WCI  34
FTW-SPINKS     CLOUDY    37  26  65 S5        30.19F WCI  33
ARLINGTON      CLOUDY    38  25  59 S3        30.18F
GRAND PRAIRIE  CLOUDY    40  24  52 S6        30.19F WCI  36
ADDISON        CLOUDY    39  26  58 S5        30.19F WCI  36
MESQUITE       CLOUDY    32  25  76 S5        30.19F WCI  27
LANCASTER      CLOUDY    37  24  58 CALM      30.20F
$$

TXZ091>094-102>105-117-120-121-131>134-160800-
NORTH CENTRAL TEXAS

CITY           SKY/WX    TMP DP  RH WIND       PRES   REMARKS
SHRMAN/DENISON PTCLDY    38  24  59 S9        30.16F WCI  31
GAINESVILLE    CLOUDY    35  22  59 CALM      30.16F
BOWIE          CLOUDY    32  23  67 CALM      30.13F
BRIDGEPORT     PTCLDY    43  22  43 SW9       30.16F WCI  37
DENTON         CLOUDY    35  24  64 S7        30.16F WCI  29
MCKINNEY       CLOUDY    33  25  72 S3        30.17F
BONHAM         CLOUDY    32  24  72 S7        30.16F WCI  25
ROCKWALL       CLOUDY    38  27  63 S9        30.18F WCI  31
TERRELL        CLOUDY    34  25  69 CALM      30.19F
WAXAHACHIE     PTCLDY    37  26  63 CALM      30.20F
CLEBURNE       CLOUDY    37  27  65 S7        30.19F WCI  32
GRANBURY       CLOUDY    39  24  55 SE5       30.19F WCI  35
$$

TXZ083>090-098>101-113>116-127>130-139>142-154-155-160800-
WESTERN NORTH TEXAS

CITY           SKY/WX    TMP DP  RH WIND       PRES   REMARKS
WICHITA FALLS  CLEAR     39  23  52 S14       30.10F WCI  31
WF-KICKAPOO    CLEAR     40  23  50 S5        30.13F WCI  37
VERNON         CLOUDY    39  19  44 SW8       30.08F WCI  34
ABILENE        CLOUDY    34  22  61 S9        30.14F WCI  27
ABILENE-DYESS  CLOUDY    31  21  65 S7        30.13F WCI  25
GRAHAM           N/A     33  24  69 CALM      30.13F
BRECKENRIDGE   CLOUDY    38  23  55 S8        30.14F WCI  32
CISCO          CLOUDY    36  23  60 S7        30.16F WCI  30
EASTLAND       CLOUDY    23  19  82 CALM      30.15F
RANGER         CLOUDY    35  24  63 SW6       30.15F WCI  30
MINERAL WELLS  CLOUDY    30  20  66 SE6       30.15F WCI  24
STEPHENVILLE   CLOUDY    34  22  62 CALM      30.19F
COMANCHE       CLOUDY    41  26  54 S9        30.17F WCI  35
BROWNWOOD      CLOUDY    27  18  69 CALM      30.18F
COLEMAN        CLOUDY    36  22  57 S6        30.17F WCI  31
$$

TXZ143>147-156>162-174-175-160800-
CENTRAL TEXAS

CITY           SKY/WX    TMP DP  RH WIND       PRES   REMARKS
WACO           CLOUDY    33  26  75 CALM      30.21F
WACO-MCGREGOR  PTCLDY    37  26  64 S6        30.21F WCI  32
HILLSBORO      CLOUDY    37  26  65 SE3       30.19F
CORSICANA      PTCLDY    37  27  67 S7        30.22F WCI  32
MEXIA          PTCLDY    35  25  67 SE6       30.21F WCI  30
HEARNE         CLOUDY    35  32  88 CALM      30.25F
TEMPLE         CLOUDY    36  27  69 S7        30.22F WCI  30
KILLEEN        PTCLDY    40  28  62 SE6       30.19F WCI  36
KILLEEN-SKYLRK PTCLDY    41  27  57 S5        30.21F WCI  38
FORT HOOD      PTCLDY    40  27  59 S3        30.18S
GATESVILLE     CLOUDY    34  25  69 CALM      30.22F
HAMILTON       CLOUDY    37  26  62 S8        30.19F WCI  31
LAMPASAS       CLOUDY    37  26  64 CALM      30.18S
$$

TXZ095>097-106>112-122>126-135>138-148>153-164>167-160800-
EAST TEXAS

CITY           SKY/WX    TMP DP  RH WIND       PRES   REMARKS
PARIS          CLOUDY    32  26  78 S5        30.19F WCI  27
SULPHUR SPRNGS CLOUDY    36  27  71 CALM      30.21F
MOUNT PLEASANT CLOUDY    30  28  90 SE3       30.22F
GILMER         CLOUDY    31  28  88 S3        30.21F
MINEOLA        CLOUDY    28  27  93 CALM      30.21S
TYLER          CLOUDY    34  30  85 S6        30.20F WCI  29
LONGVIEW       CLOUDY    33  31  92 S5        30.21F WCI  29
MARSHALL       CLOUDY    30  28  92 CALM      30.24F
ATHENS         CLOUDY    28  23  80 CALM      30.21F
PALESTINE      MOCLDY    33  31  90 SE3       30.24F
JACKSONVILLE   PTCLDY    39  30  70 S3        30.22F
HENDERSON      PTCLDY    30  28  91 CALM      30.23F
CENTER         CLOUDY    31  30  96 CALM      30.24F
NACOGDOCHES    PTCLDY    29  27  92 CALM      30.25F
LUFKIN         PTCLDY    36  34  92 CALM      30.25F
$$

SUPPLEMENTAL OBSERVATIONS (NWS FORT WORTH AREA)

CITY           SKY/WX    TMP DP  RH WIND       PRES   REMARKS
$$

SUPPLEMENTAL OBSERVATIONS (NWS NORMAN AREA)

CITY           SKY/WX    TMP DP  RH WIND       PRES   REMARKS
GOODLETT         N/A     38  22  54 SW9       30.06F WCI  31
ODELL            N/A     39  23  52 S10       30.08F WCI  32
CROWELL          N/A     37  21  53 SW8       30.09F WCI  31
KNOX CITY        N/A     34  21  57 S9        30.11F WCI  27
SEYMOUR          N/A     37  22  54 S9        30.11F WCI  31
$$

SUPPLEMENTAL OBSERVATIONS (NWS SAN ANGELO AREA)

CITY           SKY/WX    TMP DP  RH WIND       PRES   REMARKS
WEINERT          N/A     36  19  51 SW9       30.12F WCI  29
HASKELL          N/A     34  20  56 SW9       30.12S WCI  27
THROCKMORTON     N/A     36  27  69 SW5       30.14F WCI  32
STAMFORD         N/A     35  22  57 S8        30.14F WCI  29
CLYDE            N/A     40  22  48 S9        30.15F WCI  34
$$

SUPPLEMENTAL OBSERVATIONS (NWS SHREVEPORT AREA)

CITY           SKY/WX    TMP DP  RH WIND       PRES   REMARKS
$$

SUPPLEMENTAL OBSERVATIONS ARE A COLLECTION OF AUTOMATED INSTRUMENTS
THAT ARE MAINTAINED BY A VARIETY OF FEDERAL AND STATE AGENCIES.
CERTAIN ELEMENTS...SUCH AS HUMIDITY VALUES AND SUSTAINED WIND
SPEEDS...MAY BE APPROXIMATED.





USA.gov is the U.S. government's official web portal to all federal, state and local government web resources and services.